Flag for Austria

Past Weather in St. Pölten, Lower Austria, Austria — Yesterday and Last 2 Weeks

Now
54 °F

Light rain. Partly cloudy.


Feels Like: 49 °F
Forecast: 49 / 45 °F
Wind: 18 mph from Southwest

Location: Tulln Airport
Current Time: Sep 25, 2020 at 7:32:46 pm
Latest Report: Sep 25, 2020 at 6:50 pm
Visibility: 12 mi
Pressure29.47 "Hg
Humidity: 82%
Dew Point: 48 °F
Location of St. PöltenLocation

Past Weather in St. Pölten — Graph

°F

St. Pölten Temperature Yesterday

Maximum temperature yesterday: 77 °F (at 12:50 pm)
Minimum temperature yesterday: 59 °F (at 5:50 am)
Average temperature yesterday: 69 °F

High & Low Weather Summary for the Past Weeks

 TemperatureHumidityPressure
High82 °F (Sep 12, 2:50 pm)100% (Sep 11, 6:50 am)30.39 "Hg (Sep 11, 6:50 am)
Low45 °F (Sep 19, 5:50 am)38% (Sep 18, 2:50 pm)29.21 "Hg (Sep 25, 1:20 pm)
Average68 °F68%30.05 "Hg
* Reported Sep 10 5:50 pm — Sep 25 5:50 pm, St. Pölten. Weather by CustomWeather, © 2020

Note: Actual official high and low records may vary slightly from our data, if they occured in-between our weather recording intervals... More about our weather records

St. Pölten Weather History for the Previous 24 Hours

Scroll right to see more
 ConditionsComfort  
Time TempWeatherWind HumidityBarometerVisibility
5:50 pm
Fri, Sep 25
54 °FBroken clouds.14 mph88%29.47 "Hg16 mi
4:50 pm59 °FLight rain. Partly sunny.12 mph82%29.47 "Hg12 mi
3:50 pm59 °FPartly sunny.9 mph88%29.47 "Hg12 mi
2:50 pm59 °FLight rain. Broken clouds.7 mph94%29.47 "Hg6 mi
2:20 pm59 °FLight rain. More clouds than sun.12 mph88%29.50 "Hg4 mi
1:50 pm61 °FLight rain. Overcast.9 mph88%29.50 "Hg4 mi
1:20 pm61 °FPartly sunny.9 mph83%29.21 "Hg16 mi
12:50 pm61 °FBroken clouds.5 mph88%29.50 "Hg19 mi
12:20 pm61 °FBroken clouds.7 mph88%29.50 "Hg19 mi
11:50 am59 °FBroken clouds.5 mph94%29.50 "Hg19 mi
11:20 am59 °FLight rain. More clouds than sun.9 mph94%29.50 "Hg12 mi
10:50 am57 °FLight rain. Cloudy.12 mph100%29.53 "Hg9 mi
10:20 am57 °FLight rain. More clouds than sun.16 mph100%29.50 "Hg4 mi
9:50 am57 °FRain. More clouds than sun.12 mph100%29.50 "Hg4 mi
9:20 am59 °FRain. More clouds than sun.14 mph94%29.50 "Hg4 mi
8:50 am59 °FRain. More clouds than sun.9 mph94%29.50 "Hg4 mi
8:20 am61 °FRain. More clouds than sun.5 mph94%29.50 "Hg6 mi
7:50 am61 °FLight rain. More clouds than sun.5 mph94%29.53 "Hg9 mi
7:20 am61 °FLight rain. More clouds than sun.7 mph94%29.53 "Hg9 mi
6:50 am61 °FLight rain. Overcast.5 mph94%29.53 "Hg7 mi
5:50 am63 °FLight rain. Overcast.7 mph88%29.53 "Hg7 mi
10:50 pm
Thu, Sep 24
64 °FPassing clouds.2 mph78%29.68 "Hg25 mi
9:50 pm64 °FPassing clouds.2 mph78%29.71 "Hg25 mi
9:20 pm64 °FPassing clouds.5 mph78%29.74 "Hg25 mi
8:50 pm64 °FPassing clouds.5 mph78%29.74 "Hg25 mi
7:50 pm64 °FPassing clouds.2 mph83%29.77 "Hg25 mi
7:20 pm66 °FPassing clouds.2 mph78%29.77 "Hg37 mi
Weather by CustomWeather, © 2020

See weather overview